Regional Weather Roundup
Issued by NWS Albany, NY

Current Version | Previous Version | Text Only | Print | Product List | Glossary On
Versions: 1 2 3 4 5 6 7 8 9 10 11 12 13 14 15 16 17 18 19 20 21 22 23 24 25 26 27 28 29 30 31 32 33 34 35 36 37 38 39 40 41 42 43 44 45 46 47 48 49 50
000 ASUS41 KALY 211210 RWRALY NEW YORK STATE HOURLY WEATHER ROUNDUP NATIONAL WEATHER SERVICE ALBANY NY 700 AM EST SUN DEC 21 2014 NOTE: "FAIR" INDICATES FEW OR NO CLOUDS BELOW 12,000 FEET WITH NO SIGNIFICANT WEATHER AND/OR NO OBSTRUCTIONS TO VISIBILITY. NYZ032-033-038>043-046>054-057>066-NYZ062>081-211300- EAST CITY SKY/WX TMP DP RH WIND PRES REMARKS ALBANY FLURRIES 27 20 75 NE5 30.33R WCI 22 GLENS FALLS CLOUDY 24 19 81 CALM 30.33R POUGHKEEPSIE CLOUDY 29 24 82 N5 30.31R WCI 24 NEWBURGH CLOUDY 27 27 100 CALM 30.30R FOG MONTGOMERY CLOUDY 28 25 88 N5 30.29R WCI 23 WHITE PLAINS CLOUDY 30 24 78 NW8 30.27R WCI 22 ISLIP CLOUDY 33 26 75 NW6 30.26S WCI 28 NEW YORK CITY CLOUDY 32 25 75 N7 30.30R WCI 26 CENTRAL PARK CLOUDY 31 24 75 NW5 30.31R WCI 26 $$ NYZ005>009-017-018-044>046-055-056-211300- CENTRAL CITY SKY/WX TMP DP RH WIND PRES REMARKS FULTON CLOUDY 27 21 78 SE3 30.29S SYRACUSE CLOUDY 27 24 89 SE3 30.30S ROME PTCLDY 24 21 88 CALM 30.32R ELMIRA CLOUDY 27 23 85 CALM 30.28R BINGHAMTON CLOUDY 24 19 81 W3 30.22S MONTICELLO CLOUDY 25 23 93 CALM 30.25R $$ NYZ026>034-041>043-211300- NORTH CITY SKY/WX TMP DP RH WIND PRES REMARKS WATERTOWN CLOUDY 26 20 77 CALM 30.31R FORT DRUM NOT AVBL MASSENA CLOUDY 14 11 87 E6 30.36R WCI 5 SARANAC LAKE CLOUDY 16 32 100 CALM 30.21R PLATTSBURGH CLOUDY 17 16 95 CALM 30.36R FOG $$ NYZ001>004-010>016-019>021-211300- WEST CITY SKY/WX TMP DP RH WIND PRES REMARKS NIAGARA FALLS MOCLDY 26 23 88 CALM 30.29R BUFFALO MOCLDY 27 22 81 SW3 30.29R DUNKIRK CLOUDY 30 24 78 SW6 30.30R WCI 24 JAMESTOWN CLOUDY 25 19 80 SW3 30.24R WELLSVILLE CLOUDY 24 21 88 W5 30.22R WCI 18 ROCHESTER MOCLDY 27 22 81 SW3 30.29S PENN YAN CLOUDY 28 21 75 S3 30.27R $$ KEY WCI = WIND CHILL INDEX VSB = VISIBILITY HX = HEAT INDEX $$

USA.gov is the U.S. government's official web portal to all federal, state and local government web resources and services.